Date String (YYYY-MM-DD hh:mm:ss) UTC,Instrument flags,Ambient pressure (hPa),Sample flow (lpm),Bypass flow (lpm),Sample temperature (°C),Ambient temperature (°C),ASC tube jacket temperature (°C),LED temperature (°C),Box temperature (°C),Sample RH (%),Span deviation,Mass concentration (μg/m³),Mass concentration (μg/m³),Mass concentration (μg/m³)
DateTimeUTC,F1_M11,P_M11,Q1_M11,Q2_M11,T1_M11,T2_M11,T3_M11,T4_M11,T5_M11,U1_M11,ZSPAN_M11,X2_M11,X0_M11,X1_M11
2022-04-13 23:00:00,,0819.5,5.00,0.00,21.9,20.9,00.0,30.9,23.5,04.4,0000.0,0001.68,0004.92,0001.06
2022-04-13 23:01:00,,0819.6,4.99,0.00,21.9,20.9,00.0,30.9,23.5,04.4,0000.0,0001.67,0004.86,0001.08
2022-04-13 23:02:00,,0819.6,5.00,0.00,21.8,20.9,00.0,30.9,23.5,04.4,0000.0,0001.70,0004.67,0001.10
2022-04-13 23:03:00,,0819.7,5.00,0.00,21.8,20.9,00.0,30.8,23.4,04.5,0000.0,0001.71,0004.21,0001.13
2022-04-13 23:04:00,,0819.7,5.01,0.00,21.8,20.9,00.0,30.8,23.4,04.5,0000.0,0001.76,0004.17,0001.16
2022-04-13 23:05:00,,0819.7,5.00,0.00,21.8,20.9,00.0,30.8,23.4,04.6,0000.0,0001.78,0003.23,0001.17
2022-04-13 23:06:00,,0819.6,5.00,0.00,21.8,20.8,00.0,30.8,23.4,04.5,0000.0,0001.76,0003.09,0001.17
2022-04-13 23:07:00,,0819.5,5.00,0.00,21.8,20.9,00.0,30.8,23.5,04.8,0000.0,0001.77,0002.93,0001.19
2022-04-13 23:08:00,,0819.7,5.01,0.00,21.8,20.9,00.0,30.8,23.5,05.5,0000.0,0001.81,0003.06,0001.19
2022-04-13 23:09:00,,0819.7,4.99,0.00,21.8,20.9,00.0,30.8,23.5,05.8,0000.0,0001.82,0003.11,0001.19
2022-04-13 23:10:00,,0819.8,5.00,0.00,21.8,20.8,00.0,30.8,23.5,06.0,0000.0,0001.84,0003.16,0001.19
2022-04-13 23:11:00,,0819.8,5.01,0.00,21.7,20.7,00.0,30.8,23.4,06.2,0000.0,0001.83,0003.25,0001.18
2022-04-13 23:12:00,,0819.9,5.01,0.00,21.6,20.6,00.0,30.8,23.2,06.4,0000.0,0001.82,0003.29,0001.17
2022-04-13 23:13:00,,0819.8,4.99,0.00,21.6,20.5,00.0,30.7,23.1,06.3,0000.0,0001.79,0003.23,0001.15
2022-04-13 23:14:00,,0819.7,5.01,0.00,21.6,21.2,00.0,30.8,23.3,06.1,0000.0,0001.82,0003.26,0001.14
2022-04-13 23:15:00,,0819.7,5.00,0.00,21.8,22.2,00.0,30.8,23.7,06.2,0000.0,0001.80,0003.29,0001.12
2022-04-13 23:16:00,,0819.7,5.01,0.00,21.9,23.0,00.0,30.9,24.0,06.2,0000.0,0001.75,0003.23,0001.11
2022-04-13 23:17:00,,0819.7,5.00,0.00,22.0,22.9,00.0,30.9,24.0,06.1,0000.0,0001.73,0003.19,0001.10
2022-04-13 23:18:00,,0819.6,4.98,0.00,22.0,22.5,00.0,30.9,23.8,06.0,0000.0,0001.78,0003.33,0001.11
2022-04-13 23:19:00,,0819.6,5.00,0.00,21.9,22.1,00.0,30.9,23.6,06.0,0000.0,0001.77,0003.42,0001.13
2022-04-13 23:20:00,,0819.5,5.01,0.00,21.8,21.7,00.0,30.9,23.5,05.8,0000.0,0001.82,0003.53,0001.14
2022-04-13 23:21:00,,0819.6,5.00,0.00,21.8,21.4,00.0,30.8,23.4,05.7,0000.0,0001.82,0004.44,0001.15
2022-04-13 23:22:00,,0819.7,5.00,0.00,21.7,21.2,00.0,30.8,23.4,05.5,0000.0,0001.84,0004.78,0001.15
2022-04-13 23:23:00,,0819.8,5.00,0.00,21.7,21.1,00.0,30.8,23.4,05.7,0000.0,0001.89,0004.80,0001.17
2022-04-13 23:24:00,,0819.8,5.00,0.00,21.7,21.0,00.0,30.8,23.4,05.8,0000.0,0001.90,0004.87,0001.19
2022-04-13 23:25:00,,0819.8,4.99,0.00,21.7,21.0,00.0,30.8,23.3,05.9,0000.0,0001.92,0004.97,0001.21
2022-04-13 23:26:00,,0819.8,5.00,0.00,21.7,20.9,00.0,30.8,23.3,06.1,0000.0,0001.97,0005.12,0001.23
2022-04-13 23:27:00,,0819.8,5.00,0.00,21.6,20.8,00.0,30.8,23.3,06.2,0000.0,0001.97,0005.16,0001.24
2022-04-13 23:28:00,,0819.9,5.00,0.00,21.6,20.8,00.0,30.8,23.2,06.1,0000.0,0002.01,0005.18,0001.27
2022-04-13 23:29:00,,0819.9,5.01,0.00,21.6,20.7,00.0,30.7,23.2,06.3,0000.0,0001.96,0005.08,0001.28
2022-04-13 23:30:00,,0819.9,5.00,0.00,21.6,20.7,00.0,30.7,23.2,06.5,0000.0,0001.96,0004.98,0001.28
2022-04-13 23:31:00,,0819.9,5.00,0.00,21.5,20.7,00.0,30.7,23.2,06.6,0000.0,0001.95,0005.00,0001.28
2022-04-13 23:32:00,,0820.0,4.99,0.00,21.5,20.6,00.0,30.7,23.1,06.6,0000.0,0002.03,0004.47,0001.28
2022-04-13 23:33:00,,0820.1,5.01,0.00,21.4,20.6,00.0,30.6,23.1,06.6,0000.0,0002.06,0004.77,0001.29
2022-04-13 23:34:00,,0820.2,5.01,0.00,21.4,20.5,00.0,30.6,23.0,06.7,0000.0,0002.07,0005.28,0001.29
2022-04-13 23:35:00,,0820.2,4.99,0.00,21.4,20.4,00.0,30.6,23.0,06.8,0000.0,0002.06,0005.32,0001.27
2022-04-13 23:36:00,,0820.2,5.00,0.00,21.4,20.4,00.0,30.6,23.0,06.8,0000.0,0002.00,0005.14,0001.26
2022-04-13 23:37:00,,0820.2,5.00,0.00,21.4,20.5,00.0,30.5,23.0,06.5,0000.0,0001.97,0005.33,0001.26
2022-04-13 23:38:00,,0820.2,5.00,0.00,21.4,20.5,00.0,30.5,23.0,06.6,0000.0,0001.96,0005.53,0001.26
2022-04-13 23:39:00,,0820.2,5.00,0.00,21.4,20.5,00.0,30.5,23.0,06.9,0000.0,0001.95,0005.84,0001.25
2022-04-13 23:40:00,,0820.3,5.00,0.00,21.4,20.8,00.0,30.5,23.1,07.5,0000.0,0001.94,0005.99,0001.24
2022-04-13 23:41:00,,0820.3,5.00,0.00,21.5,21.8,00.0,30.6,23.4,07.6,0000.0,0001.88,0006.63,0001.20
2022-04-13 23:42:00,,0820.3,5.00,0.00,21.7,22.9,00.0,30.6,23.8,07.5,0000.0,0001.87,0007.91,0001.18
2022-04-13 23:43:00,,0820.3,5.00,0.00,21.8,23.1,00.0,30.7,23.9,07.4,0000.0,0001.81,0007.84,0001.15
2022-04-13 23:44:00,,0820.2,5.00,0.00,21.9,22.8,00.0,30.7,23.9,07.5,0000.0,0001.83,0007.50,0001.14
2022-04-13 23:45:00,,0820.2,5.00,0.00,21.9,22.5,00.0,30.7,23.9,07.6,0000.0,0001.76,0006.95,0001.12
2022-04-13 23:46:00,,0820.2,5.00,0.00,22.0,22.3,00.0,30.7,23.9,07.6,0000.0,0001.77,0006.82,0001.11
2022-04-13 23:47:00,,0820.2,5.02,0.00,22.0,22.1,00.0,30.7,23.8,07.6,0000.0,0001.78,0006.85,0001.10
2022-04-13 23:48:00,,0820.2,4.98,0.00,22.0,21.9,00.0,30.8,23.8,07.7,0000.0,0001.74,0006.49,0001.06
2022-04-13 23:49:00,,0820.2,5.01,0.00,22.0,21.8,00.0,30.8,23.8,07.5,0000.0,0001.75,0006.36,0001.04
2022-04-13 23:50:00,,0820.3,4.98,0.00,22.0,21.7,00.0,30.8,23.8,07.5,0000.0,0001.79,0005.97,0001.02
2022-04-13 23:51:00,,0820.3,5.01,0.00,22.0,21.6,00.0,30.8,23.8,07.5,0000.0,0001.77,0005.85,0001.02
2022-04-13 23:52:00,,0820.2,5.00,0.00,22.0,21.4,00.0,30.8,23.7,07.6,0000.0,0001.79,0004.97,0001.03
2022-04-13 23:53:00,,0820.3,5.00,0.00,21.9,21.3,00.0,30.8,23.7,07.7,0000.0,0001.79,0003.91,0001.03
2022-04-13 23:54:00,,0820.2,5.00,0.00,21.9,21.3,00.0,30.8,23.7,07.7,0000.0,0001.78,0003.13,0001.03
2022-04-13 23:55:00,,0820.2,5.00,0.00,21.9,21.2,00.0,30.8,23.6,08.0,0000.0,0001.72,0003.00,0001.03
2022-04-13 23:56:00,,0820.2,5.00,0.00,21.9,21.1,00.0,30.8,23.6,08.0,0000.0,0001.71,0003.00,0001.04
2022-04-13 23:57:00,,0820.2,5.00,0.00,21.8,21.0,00.0,30.8,23.5,07.8,0000.0,0001.72,0003.00,0001.05
2022-04-13 23:58:00,,0820.2,4.99,0.00,21.8,20.9,00.0,30.8,23.4,07.5,0000.0,0001.77,0003.05,0001.06
2022-04-13 23:59:00,,0820.2,5.01,0.00,21.7,20.9,00.0,30.8,23.3,07.4,0000.0,0001.80,0003.17,0001.08
